Погода в Нагуа

Доминиканская Республика     19°22′20″N   69°50′39″W
темп.,
°C
ветер,
м/с
пор.,
м/с
влажн.,
%
обл.,
%
осадки,
мм/ч
давл.,
гПа
погр.,
м
11 апреля, вс
вс1123:00+21в247563 0.0 1016252
02:00+20юв137952 0.0 1014191
05:00+19юв128399 0.0 1014225
08:00+22вюв137135 0.0 1016392
11:00+27в33505 0.0 10151413
14:00+28всв33445 0.0 10121066
17:00+27в35525 0.0 1010536
20:00+22юв367273 0.0 1012306
12 апреля, пн
пн1223:00+20ююв238260 0.0 1014117
02:00+19ю128740 0.0 101453
05:00+19ююз1289100 0.0 101349
08:00+22ю127475 0.0 1014171
11:00+29ююв2344100 0.0 10141280
14:00+31св2342100 0.0 10111626
17:00+27в24616 0.0 1010516
20:00+22ю11865 0.0 101348
13 апреля, вт
вт1323:00+21ююз248563 0.0 101492
02:00+20ююз22885 0.0 101258
05:00+20ююз22915 0.0 101260
08:00+23ююз24763 0.0 1014268
11:00+31с02445 0.0 10141126
14:00+29ссв555531 0.0 1012748
17:00+27с465923 0.0 1012635
20:00+24с2578100 0.0 1014284
14 апреля, ср
ср1423:00+23ссз2483100 0.0 1015214
02:00+22сз23897 0.0 1014192
05:00+21зсз129419 0.0 101465
08:00+24сз258212 0.0 1016382
11:00+27ссв446849 0.4 10171079
14:00+27ссв4566100 0.7 10151125
17:00+25ссв4468100 0.1 1014954
20:00+22ссв257483 0.1 1015302
15 апреля, чт
чт1523:00+22ссв237290 0.0 1016235
02:00+20ссв13775 0.0 1014225
05:00+19всв02830 0.0 1014238
08:00+23св02703 0.0 1016418
11:00+27св33520 0.0 10161216
14:00+28св44520 0.0 1013922
17:00+26св45600 0.0 1012762
20:00+23в24784 0.0 1014172